STARLINK-36086, 66980

Orbit data source: Space-Track

STARLINK-36086, 66980 is a payload satellite owned by SpaceX/Seattle (US) in LEO that was launched on Mon, 08 Dec 2025 UTC via an FALCON 9 launch vehicle from the Air Force Eastern Test Range (AFETR). Payload-class satellites include a variety of spacecraft equipped with specific instruments for various scientific and technological missions. These include communications satellites like Starlink; space stations such as the ISS; scientific satellites like the Hubble; Earth observation satellites from companies like Planet Labs, Umbra, and HawkEye 360; GPS; miniature CubeSats for education and research; and military/defense satellites.

Loading next visibility...
Identifier
66980, 2025-288X
Orbit
LEO
Country
Flag of USUS
Related business
Manufacturer
SpaceX/Seattle
Mission
Operational Commercial Communications
Bus & Motor
STARLINK V2MO, Unknown motor
Mass
575 kg wet, ~530 kg dry
Launch date (UTC)
2025-12-08 (5 months ago)
Launch vehicle
FALCON 9
Launch site
Air Force Eastern Test Range (AFETR)
Object type
Payload
Rocket body
Debris
Shape & HBR
Box + 2 Pan, 17.7 m
Radar Cross Section
36.964 m²

Expand to show TLE details & history
Last TLE update: 12 hours ago

TLE from 12 hours ago
0 STARLINK-36086
1 66980U 25288X   26130.01740890  .00009830  00000-0  36638-3 0  9994
2 66980  43.0042  37.3736 0001724 278.6429  81.4228 15.27570012 24668
Epoch: 2026-05-10T00:25Z
TLE epoch observation values (Epoch: 2026-05-10T00:25:04.128Z)
Latitude
Longitude
163.27988°
Altitude
482.679 km
Speed
7.626 km/s
True Right ascension
02h 29m 29s
True Declination
0° 00' 00"
Sunlit
Object was in daylight at epoch
Visualization orbit readout
Latitude
Unknown
Longitude
Unknown
Altitude
Unknown
Speed
Unknown
Apparent Right ascension
Unknown
Apparent Declination
Unknown
Sunlit
N/A
Visualization observer readout
Local Sidereal Time
20:36:01
Azimuth
Unknown
Elevation
Unknown
Doppler factor
Unknown
Orbital elements
Apogee altitude
486.207 km
Perigee altitude
483.84 km
Semi-major axis
6,863.16 km
Eccentricity
0.00017
Inclination
43.0042°
RAAN
37.3736°
Arg. of periapsis
278.6429°
True anomaly
81.44234°
Mean anomaly
81.4228°
Eccentric anomaly
81.43257°
Mean motion
3.81731 °/min
Orbital period
94.31 mins
BSTAR
0.00036638
Loading maneuver chart data...
Computing Atmospheric mass density...
Loading historical data...
Loading historical data...
Loading historical data...
Loading historical data...
Loading historical data...
Loading historical data...
Loading historical data...

Documentation

Showing up to 5 results
|